Leon, Spain

5:57 AM CEST en Julio 23, 2018 (GMT +0200)
Leon

Tiempo Historia de LELN - Julio, 2018

Change the Weather History Date:

Jueves, Julio 12, 2018

  Actual Average Record
Temperature  
Temperatura media 65 ° F -  
Temperatura máxima 78 ° F - - ()
Temperatura mínima 52 ° F - - ()
Growing Degree Days 15 (Base 50)    
Moisture  
Punto de rocío 50 ° F    
Average Humidity 62    
Maximum Humidity 94    
Minimum Humidity 24    
Precipitación  
Precipitación 0.00 pul - - ()
Presión al nivel del mar  
Presión al nivel del mar 30.07 pul    
Viento  
Velocidad del viento 4 mph ()    
Velocidad máxima del viento 7 mph    
Max Gust Speed -    
Visibilidad 6.7 Millas    
Eventos      
T = Trace of Precipitation, MM = Missing Value Source: Averaged Metar Reports

Daily Weather History Graph

Daily Weather History Graph

Search for Another Location

Airport or City:

Astronomía

Jul. 12, 2018 Salida Puesta
Hora real 6:55 AM CEST 10:00 PM CEST
Crepúsculo civil 6:21 AM CEST 10:34 PM CEST
Crepúsculo náutico 5:38 AM CEST 11:17 PM CEST
Crepúsculo astronómico 4:46 AM CEST 12:09 AM CEST
Luna 6:09 AM CEST (7/12) 9:28 PM CEST (7/12)
Horas de luz 16h 12m
Horas de luz
15h 04m
Creciente menguante, 1% of the Moon is Illuminated
Jul 12
Creciente menguante
Jul 13
Nueva
Jul 19
Cuarto creciente
Jul 27
Luna llena
Ago 4
Cuarto menguante

Hourly Weather History & Observations

Hora (CEST) Temp. Punto de rocío Humedad Presión Visibilidad Wind Dir Velocidad del viento Velocidad de ráfagas Precip Eventos Condiciones
12:00 AM 58 ° F 51 ° F 71%  pul - Norte 5.8 mph - -  
12:00 AM 59.0 ° F 50.0 ° F 72% 30.09 pul - Norte 5.8 mph - N/A   Despejado
12:30 AM 57.2 ° F 50.0 ° F 77% 30.09 pul - Norte 5.8 mph - N/A   Despejado
1:00 AM 57 ° F 51 ° F 76%  pul - Norte 4.6 mph - -  
1:00 AM 57.2 ° F 50.0 ° F 77% 30.09 pul - Norte 4.6 mph - N/A   Despejado
1:30 AM 57.2 ° F 50.0 ° F 77% 30.09 pul - NNO 4.6 mph - N/A   Despejado
2:00 AM 56 ° F 51 ° F 79%  pul - NNO 4.6 mph - -  
2:00 AM 57.2 ° F 50.0 ° F 77% 30.09 pul 6.2 mi NNO 4.6 mph - N/A   Desconocido
2:30 AM 55.4 ° F 50.0 ° F 82% 30.09 pul 6.2 mi NNO 4.6 mph - N/A   Desconocido
3:00 AM 56 ° F 51 ° F 80%  pul - Norte 4.6 mph - -  
3:00 AM 55.4 ° F 50.0 ° F 82% 30.06 pul 5.6 mi Norte 3.5 mph - N/A   Desconocido
3:30 AM 55.4 ° F 50.0 ° F 82% 30.06 pul 6.2 mi Norte 4.6 mph - N/A   Desconocido
4:00 AM 53.6 ° F 51.8 ° F 94% 30.06 pul - NNO 4.6 mph - N/A   Despejado
4:30 AM 53.6 ° F 50.0 ° F 88% 30.06 pul 5.6 mi Norte 5.8 mph - N/A   Desconocido
5:00 AM 54 ° F 51 ° F 85%  pul - NNO 5.8 mph - -  
5:00 AM 53.6 ° F 50.0 ° F 88% 30.06 pul - NNO 5.8 mph - N/A   Despejado
5:30 AM 55.4 ° F 50.0 ° F 82% 30.06 pul 5.0 mi Norte 5.8 mph - N/A   Parcialmente nublado
6:00 AM 54 ° F 50 ° F 83%  pul - Norte 5.8 mph - -  
6:00 AM 55.4 ° F 48.2 ° F 77% 30.06 pul 5.6 mi Norte 5.8 mph - N/A   Parcialmente nublado
6:30 AM 53.6 ° F 48.2 ° F 82% 30.06 pul 6.2 mi NNO 4.6 mph - N/A   Desconocido
7:00 AM 52 ° F 49 ° F 86%  pul - Norte 4.6 mph - -  
7:00 AM 53.6 ° F 48.2 ° F 82% 30.06 pul 5.6 mi Norte 4.6 mph - N/A   Desconocido
7:30 AM 53.6 ° F 48.2 ° F 82% 30.06 pul 6.2 mi Norte 5.8 mph - N/A   Desconocido
8:00 AM 53.6 ° F 50.0 ° F 88% 30.06 pul - Sin viento Sin viento - N/A   Despejado
8:30 AM 57.2 ° F 50.0 ° F 77% 30.06 pul 6.2 mi NNO 4.6 mph - N/A   Parcialmente nublado
9:00 AM 58 ° F 52 ° F 74%  pul - NE 2.3 mph - -  
9:00 AM 57.2 ° F 51.8 ° F 82% 30.09 pul 6.2 mi Variable 2.3 mph - N/A   Parcialmente nublado
9:30 AM 60.8 ° F 51.8 ° F 72% 30.09 pul 6.2 mi NE 4.6 mph - N/A   Parcialmente nublado
10:00 AM 63 ° F 52 ° F 58%  pul - ENE 4.6 mph - -  
10:00 AM 62.6 ° F 50.0 ° F 63% 30.09 pul - ENE 3.5 mph - N/A   Despejado
10:30 AM 64.4 ° F 50.0 ° F 59% 30.09 pul 6.2 mi NE 5.8 mph - N/A   Parcialmente nublado
11:00 AM 66 ° F 50 ° F 45%  pul 19 mi ESE 2.3 mph - -   Nubes dispersas
11:00 AM 66.2 ° F 48.2 ° F 52% 30.09 pul 6.2 mi SE 2.3 mph - N/A   Parcialmente nublado
11:30 AM 66.2 ° F 48.2 ° F 52% 30.09 pul 6.2 mi SSE 2.3 mph - N/A   Parcialmente nublado
12:00 PM 68.0 ° F 48.2 ° F 49% 30.09 pul 6.2 mi Variable 3.5 mph - N/A   Parcialmente nublado
12:30 PM 69.8 ° F 50.0 ° F 49% 30.09 pul 6.2 mi Norte 1.2 mph - N/A   Parcialmente nublado
1:00 PM 68.0 ° F 50.0 ° F 52% 30.09 pul 6.2 mi Variable 3.5 mph - N/A   Nubes dispersas
1:30 PM 69.8 ° F 48.2 ° F 46% 30.09 pul 6.2 mi NE 2.3 mph - N/A   Parcialmente nublado
2:00 PM 71 ° F 51 ° F 38%  pul 19 mi SO 2.3 mph - -   Nubes dispersas
2:00 PM 71.6 ° F 48.2 ° F 43% 30.09 pul 6.2 mi NNE 2.3 mph - N/A   Parcialmente nublado
2:30 PM 71.6 ° F 48.2 ° F 43% 30.09 pul 6.2 mi Sur 2.3 mph - N/A   Nubes dispersas
3:00 PM 74 ° F 50 ° F 32%  pul - Sur 4.6 mph - -  
3:00 PM 73.4 ° F 46.4 ° F 38% 30.09 pul 6.2 mi ESE 3.5 mph - N/A   Nubes dispersas
3:30 PM 73.4 ° F 48.2 ° F 41% 30.09 pul 6.2 mi SSE 5.8 mph - N/A   Nubes dispersas
4:00 PM 73.4 ° F 48.2 ° F 41% 30.06 pul 6.2 mi NNO 2.3 mph - N/A   Nubes dispersas
4:30 PM 73.4 ° F 48.2 ° F 41% 30.06 pul 6.2 mi Este 4.6 mph - N/A   Nubes dispersas
5:00 PM 76 ° F 50 ° F 29%  pul 25 mi SSE 4.6 mph - -   Nubes dispersas
5:00 PM 75.2 ° F 51.8 ° F 44% 30.06 pul 6.2 mi SSE 3.5 mph - N/A   Parcialmente nublado
5:30 PM 73.4 ° F 48.2 ° F 41% 30.06 pul 6.2 mi Variable 2.3 mph - N/A   Parcialmente nublado
6:00 PM 73.4 ° F 46.4 ° F 38% 30.06 pul 6.2 mi Este 2.3 mph - N/A   Parcialmente nublado
6:30 PM 75.2 ° F 46.4 ° F 36% 30.04 pul 6.2 mi ENE 2.3 mph - N/A   Parcialmente nublado
7:00 PM 78 ° F 48 ° F 24%  pul - ENE 2.3 mph - -  
7:30 PM 75.2 ° F 46.4 ° F 36% 30.04 pul 6.2 mi Este 3.5 mph - N/A   Parcialmente nublado
8:00 PM 76 ° F 50 ° F 29%  pul 25 mi ESE 4.6 mph - -   Nubes dispersas
8:00 PM 75.2 ° F 46.4 ° F 36% 30.04 pul 6.2 mi Variable 3.5 mph - N/A   Parcialmente nublado
8:30 PM 77.0 ° F 44.6 ° F 32% 30.04 pul 6.2 mi Sin viento Sin viento - N/A   Parcialmente nublado
9:00 PM 73.4 ° F 50.0 ° F 44% 30.04 pul 6.2 mi Norte 2.3 mph - N/A   Parcialmente nublado
9:30 PM 68.0 ° F 55.4 ° F 64% 30.04 pul 6.2 mi Norte 6.9 mph - N/A   Desconocido
10:00 PM 67 ° F 57 ° F 61%  pul - Norte 6.9 mph - -  
10:00 PM 66.2 ° F 55.4 ° F 68% 30.06 pul 6.2 mi Norte 6.9 mph - N/A   Desconocido
10:30 PM 66.2 ° F 55.4 ° F 68% 30.06 pul 6.2 mi NNE 6.9 mph - N/A   Desconocido
11:00 PM 64.4 ° F 55.4 ° F 73% 30.09 pul 6.2 mi Norte 6.9 mph - N/A   Desconocido
11:30 PM 64.4 ° F 55.4 ° F 73% 30.09 pul 6.2 mi NNE 6.9 mph - N/A   Desconocido